CDT,Max TemperatureF,Mean TemperatureF,Min TemperatureF,Max Dew PointF,MeanDew PointF,Min DewpointF,Max Humidity, Mean Humidity, Min Humidity, Max Sea Level PressureIn, Mean Sea Level PressureIn, Min Sea Level PressureIn, Max VisibilityMiles, Mean VisibilityMiles, Min VisibilityMiles, Max Wind SpeedMPH, Mean Wind SpeedMPH, Max Gust SpeedMPH,PrecipitationIn, CloudCover, Events, WindDirDegrees
2013-7-1,87,75,64,65,63,61,93,67,43,29.94,29.87,29.81,10,10,10,14,5,,0.00,0,,326
2013-7-2,87,75,64,66,64,62,93,67,44,30.01,29.97,29.92,10,10,10,7,2,,0.00,1,,15
2013-7-3,88,76,69,70,67,62,90,74,53,30.04,30.00,29.96,10,10,4,9,3,18,0.04,3,Rain-Thunderstorm,11
2013-7-4,89,78,69,71,69,66,100,79,49,30.02,29.97,29.92,10,8,1,10,3,,0.01,4,,15
2013-7-5,81,75,70,74,70,68,97,84,69,30.04,30.00,29.95,10,10,6,15,3,24,0.02,4,Rain-Thunderstorm,139
2013-7-6,88,78,69,72,70,68,100,86,58,30.04,30.01,29.95,10,10,3,13,3,17,0.00,6,Rain,103
2013-7-7,88,80,73,75,73,71,96,85,61,30.11,30.05,29.99,10,9,1,13,3,,0.59,7,Rain-Thunderstorm,165
2013-7-8,91,80,71,74,72,69,100,89,52,30.17,30.12,30.06,10,6,0,15,2,17,0.37,6,Fog-Rain-Thunderstorm,179
2013-7-9,91,80,70,76,72,69,100,81,53,30.19,30.13,30.08,10,9,2,10,2,,0.01,2,Rain-Thunderstorm,217
2013-7-10,91,82,75,76,74,71,96,77,57,30.12,30.05,29.97,10,9,6,9,2,,0.00,1,Thunderstorm,256
2013-7-11,90,80,71,76,72,70,97,88,63,30.05,29.98,29.91,10,8,0,20,5,36,1.43,4,Fog-Rain-Thunderstorm,287
2013-7-12,93,80,69,74,69,65,100,81,41,29.96,29.93,29.87,10,6,0,9,2,,0.00,3,Fog,343
2013-7-13,89,80,72,71,68,65,87,68,51,29.95,29.92,29.89,10,10,8,7,4,,0.00,1,,24
2013-7-14,89,78,69,73,70,67,94,81,53,30.02,29.97,29.92,10,9,3,15,2,26,0.00,4,Thunderstorm,123
2013-7-15,88,78,70,74,71,67,93,80,59,30.13,30.08,30.01,10,10,9,10,3,,0.02,2,Rain,100
2013-7-16,86,78,72,74,72,70,94,83,65,30.19,30.15,30.11,10,10,9,10,3,16,0.01,3,Rain-Thunderstorm,83
2013-7-17,91,81,73,74,72,70,94,76,55,30.23,30.18,30.13,10,10,10,8,4,16,0.00,1,Thunderstorm,67
2013-7-18,91,80,71,73,69,64,97,77,43,30.19,30.10,30.02,10,10,8,9,2,24,0.09,1,Rain-Thunderstorm,21
2013-7-19,90,80,71,75,71,65,96,76,43,30.09,30.02,29.95,10,10,9,7,2,,0.00,1,,107
2013-7-20,90,80,70,74,70,68,93,77,52,30.00,29.97,29.93,10,10,7,9,2,,0.00,1,Thunderstorm,198
2013-7-21,87,78,71,74,72,69,100,87,65,30.06,30.02,29.97,10,8,0,16,3,23,0.08,4,Fog-Rain-Thunderstorm,211
2013-7-22,91,82,72,76,73,70,100,88,55,30.07,30.03,29.99,10,8,0,31,5,41,0.66,5,Fog-Rain-Thunderstorm,223
2013-7-23,91,83,75,76,74,70,100,79,50,30.06,30.00,29.92,10,9,5,14,4,23,0.00,4,,251
2013-7-24,89,80,73,75,73,70,94,80,59,29.98,29.94,29.88,10,9,2,20,6,31,0.33,4,Rain,264
2013-7-25,91,80,71,73,71,67,100,82,50,30.06,30.00,29.92,10,8,2,9,4,,0.00,5,,318
2013-7-26,90,78,68,72,68,65,90,70,49,30.07,30.02,29.96,10,10,10,9,2,,0.00,0,,294
2013-7-27,82,78,75,77,74,72,100,90,74,29.97,29.92,29.86,10,7,1,12,4,24,0.75,6,Rain-Thunderstorm,220
2013-7-28,89,80,71,73,71,68,100,83,53,30.01,29.96,29.90,10,10,6,7,4,,0.01,4,,346
2013-7-29,93,82,73,75,72,69,94,74,48,30.11,30.07,30.01,10,9,6,7,1,,0.00,1,,75
2013-7-30,91,82,73,76,73,71,96,76,50,30.15,30.10,30.06,10,8,3,7,1,,0.00,0,,279
2013-7-31,93,83,75,75,73,71,94,74,50,30.11,30.04,29.96,10,9,7,9,2,,0.00,0,,295